Regional Weather Roundup
Issued by NWS

Home | Current Version | Previous Version | Text Only | Print | Product List | Glossary Off
Versions: 1 2 3 4 5 6 7 8 9 10 11 12 13 14 15 16 17 18 19 20 21 22 23 24 25 26 27 28 29 30 31 32 33 34 35 36 37 38 39 40 41 42 43 44 45 46 47 48 49 50

000
ASUS45 KBOI 250110
RWRID

IDAHO REGIONAL WEATHER ROUNDUP
NATIONAL WEATHER SERVICE BOISE ID
700 PM MDT SAT SEP 24 2016

NOTE: "FAIR" INDICATES FEW OR NO CLOUDS BELOW 12000 FEET
WITH NO SIGNIFICANT WEATHER AND/OR OBSTRUCTIONS TO VISIBILITY

IDZ012-014-250200-
SOUTHWEST IDAHO


CITY           SKY/WX    TMP DP  RH WIND       PRES   REMARKS
BOISE          FAIR      66  29  24 NW9       30.29S
CALDWELL       FAIR      68  33  27 NW5       30.29S
MOUNTAIN HOME  CLEAR     65  29  25 NW20      30.28R
$$

IDZ016-017-250200-
SOUTHCENTRAL IDAHO


CITY           SKY/WX    TMP DP  RH WIND       PRES   REMARKS
BURLEY         CLEAR     56  35  45 W12       30.30R
JEROME         CLEAR     58  34  40 SW14      30.29R
TWIN FALLS     CLEAR     58  35  42 W13       30.30R
$$

IDZ019>023-250200-
SOUTHEAST IDAHO


CITY           SKY/WX    TMP DP  RH WIND       PRES   REMARKS
IDAHO FALLS    PTCLDY    58  42  55 S12       30.27R
POCATELLO      PTCLDY    56  37  49 SW17      30.30R
REXBURG        PTCLDY    58  42  55 S7        30.26R
$$

IDZ006-010-011-018-031-032-250200-
CENTRAL IDAHO MOUNTAINS


CITY           SKY/WX    TMP DP  RH WIND       PRES   REMARKS
MCCALL         CLEAR     58  31  35 W8        30.32S
HAILEY         CLEAR     57  43  58 SE8       30.28R
STANLEY          N/A     56  23  27 NW7       30.34R
SALMON         CLEAR     57  32  38 NW5       30.29F
CHALLIS        CLEAR     57  29  34 N10       30.27S
$$

IDZ002-004-006-007-026-250200-
NORTHERN IDAHO


CITY           SKY/WX    TMP DP  RH WIND       PRES   REMARKS
LEWISTON       CLEAR     69  37  30 VRB3      30.28F
LOWELL           N/A     58  44  60 N5        30.30F
COEUR D`ALENE  NOT AVBL
MULLAN PASS    CLEAR     40  34  79 VRB7      30.35R
$$



USA.gov is the U.S. government's official web portal to all federal, state and local government web resources and services.